Tracking 35274 objects as of 11-Sep-2026
HD Live streaming from Space Station
objects crossing your sky now

COSMOS 1220 DEB


COSMOS 1220 DEB is no longer on orbit


NORAD ID: 13338
Int'l Code: 1980-089AH
Launch date: November 4, 1980
Source: Commonwealth of Independent States (former USSR) (CIS)
Launch site: TYURATAM MISSILE AND SPACE COMPLEX (TTMTR)
Decay date: 1983-09-10

Note: This is SATELLITE DEBRIS
Your satellite tracking list
Your tracking list is empty




NASA's NSSDC Master Catalog

Two Line Element Set (TLE):
1 13338U 80089 AH 83253.38805624  .11532911 +32265-4 +45603-2 0  9995
2 13338 064.8597 339.7846 0020926 279.3915 080.5267 16.22736634068545
Source of the keplerian elements: AFSPC